Location: Gad�tanya
(48.0500°N, 20.8500°E)
Time: 11:53:59
(UTC+00:00)

Cosmos 405 - Pass Details

Date: 05 July 2020
Orbit: 450 x 465 km, 81.3° (Epoch: 14 August)

Event Time Altitude Azimuth Distance (km) Brightness Sun altitude
Rises 23:23:24 0° 339° (NNW) 2,509 7.7 -18.7°
Reaches altitude 10° 23:25:39 10° 329° (NNW) 1,626 6.4 -18.6°
Maximum altitude 23:28:48 30° 267° (W) 851 4.1 -18.5°
Enters shadow 23:29:03 30° 258° (WSW) 857 4.1 -18.5°
